CW1309 Weather Reports


Display with metric or nautical units.
time (UTC)temp
F
wind
direction
speed
MPH
gust
MPH
rain 1hr
in
rain 24hr
in
rain mn
in
humidity
%
barometer
mb
20260903103035 82 195 3.0 8.0 0.00 0.00 0.00 94 1013.9
20260903101635 82 192 2.0 9.0 0.00 0.00 0.00 93 1013.9
20260903100033 82 198 3.0 9.0 0.00 0.00 0.00 93 1013.7
20260903094539 82 195 4.0 11.0 0.00 0.00 0.00 93 1013.8
20260903093048 83 164 8.0 15.0 0.00 0.00 0.00 93 1014.0
20260903091530 82 175 3.0 10.0 0.00 0.00 0.00 93 1014.1
20260903090034 82 168 6.0 10.0 0.00 0.00 0.00 94 1013.9
20260903084528 82 181 3.0 9.0 0.00 0.00 0.00 94 1014.0
20260903083028 82 150 3.0 8.0 0.00 0.00 0.00 94 1014.1
20260903081539 82 186 2.0 6.0 0.00 0.00 0.00 94 1014.0
20260903080026 82 196 3.0 8.0 0.00 0.00 0.00 95 1014.0
20260903074527 82 174 4.0 11.0 0.00 0.00 0.00 94 1014.0
20260903073030 82 159 2.0 7.0 0.00 0.00 0.00 94 1014.1
20260903071524 82 167 3.0 9.0 0.00 0.00 0.00 94 1014.1
20260903070023 82 175 1.0 8.0 0.00 0.00 0.00 94 1014.3
20260903064522 82 188 4.0 9.0 0.00 0.00 0.00 94 1014.1
20260903063021 82 165 2.0 8.0 0.00 0.00 0.00 94 1014.2
20260903061520 83 111 2.0 7.0 0.00 0.00 0.00 93 1014.2
20260903060019 83 177 4.0 7.0 0.00 0.00 0.00 92 1014.1
20260903054517 83 168 2.0 9.0 0.00 0.00 0.00 92 1014.3
20260903053015 83 138 4.0 7.0 0.00 0.00 0.00 90 1014.4
20260903051513 84 136 1.0 8.0 0.00 0.00 0.00 89 1014.4
20260903050012 84 165 3.0 6.0 0.00 0.00 0.00 88 1014.2
20260903044509 84 169 2.0 8.0 0.00 0.00 0.00 86 1014.3
20260903043011 85 111 4.0 8.0 0.00 0.00 0.00 84 1014.3
20260903041510 86 139 1.0 7.0 0.00 0.00 0.00 82 1014.2
20260903034509 88 113 1.0 8.0 0.00 0.00 0.00 77 1013.7
20260903033007 88 113 3.0 6.0 0.00 0.00 0.00 76 1013.7
20260903031521 89 108 3.0 7.0 0.00 0.00 0.00 74 1013.3
20260903030005 90 132 5.0 14.0 0.00 0.00 0.00 72 1012.9
20260903024506 91 147 5.0 10.0 0.00 0.00 0.00 70 1012.5
20260903023005 92 101 4.0 12.0 0.00 0.00 0.00 69 1012.1
20260903021517 93 167 3.0 11.0 0.00 0.00 0.00 69 1011.9
20260903020004 94 115 3.0 7.0 0.00 0.00 0.00 67 1011.4
20260903014503 95 89 0.0 2.0 0.00 0.00 0.00 62 1011.1
20260903013006 95 88 1.0 3.0 0.00 0.00 0.00 61 1010.9
20260903011502 96 76 0.0 4.0 0.00 0.00 0.00 61 1010.8
20260903010059 96 67 2.0 5.0 0.00 0.00 0.00 60 1010.6
20260903004558 99 166 1.0 4.0 0.00 0.00 0.00 57 1010.7
20260903003059 99 169 0.0 3.0 0.00 0.00 0.00 57 1010.7
20260903001558 99 168 1.0 5.0 0.00 0.00 0.00 57 1010.6
20260903000057 100 185 1.0 6.0 0.00 0.00 0.00 57 1010.7
20260902234603 101 153 1.0 4.0 0.00 0.00 0.00 56 1010.7
20260902233056 101 188 1.0 6.0 0.00 0.00 0.00 56 1010.7
20260902231601 101 153 3.0 7.0 0.00 0.00 0.00 57 1010.7
20260902224553 102 161 1.0 6.0 0.00 0.00 0.00 56 1010.7
20260902223053 102 181 1.0 6.0 0.00 0.00 0.00 57 1010.8
20260902221555 102 214 2.0 7.0 0.00 0.00 0.00 57 1010.8
20260902220048 101 193 1.0 11.0 0.00 0.00 0.00 57 1010.9
20260902214548 102 192 2.0 8.0 0.00 0.00 0.00 58 1011.0
20260902213051 100 233 2.0 10.0 0.00 0.00 0.00 59 1011.3
20260902211547 100 298 0.0 0.0 0.00 0.00 0.00 58 1011.4
20260902210042 101 203 3.0 13.0 0.00 0.00 0.00 59 1011.6
20260902204639 101 64 2.0 6.0 0.00 0.00 0.00 59 1011.8
20260902203038 102 227 3.0 8.0 0.00 0.00 0.00 59 1012.2
20260902201531 100 330 2.0 8.0 0.00 0.00 0.00 60 1012.4
20260902200029 99 253 6.0 10.0 0.00 0.00 0.00 61 1012.7
20260902194528 99 301 4.0 9.0 0.00 0.00 0.00 59 1013.0
20260902193025 98 92 3.0 9.0 0.00 0.00 0.00 62 1013.2
20260902191526 98 97 2.0 5.0 0.00 0.00 0.00 63 1013.5
20260902190025 98 122 3.0 9.0 0.00 0.00 0.00 64 1013.6
20260902184516 98 209 3.0 10.0 0.00 0.00 0.00 64 1014.0
20260902183013 97 152 3.0 8.0 0.00 0.00 0.00 65 1014.4
20260902181508 96 330 2.0 7.0 0.00 0.00 0.00 67 1014.7
20260902180006 96 270 5.0 10.0 0.00 0.00 0.00 68 1015.1
20260902174700 94 302 3.0 13.0 0.00 0.00 0.00 69 1015.3
20260902173055 94 279 4.0 8.0 0.00 0.00 0.00 68 1015.6
20260902171552 93 194 3.0 10.0 0.00 0.00 0.00 69 1015.8
20260902170046 92 211 5.0 12.0 0.00 0.00 0.00 73 1015.9
20260902164544 91 229 6.0 11.0 0.00 0.00 0.00 74 1016.2
20260902163041 90 252 5.0 11.0 0.00 0.00 0.00 77 1016.2
20260902161540 90 232 3.0 10.0 0.00 0.00 0.00 80 1016.3
20260902160047 89 223 5.0 10.0 0.00 0.00 0.00 81 1016.2
20260902154536 88 244 8.0 14.0 0.00 0.00 0.00 82 1016.3
20260902153030 86 219 3.0 8.0 0.00 0.00 0.00 86 1016.3
20260902151526 85 246 4.0 10.0 0.00 0.00 0.00 87 1016.4
20260902150022 84 207 5.0 15.0 0.00 0.00 0.00 89 1016.5
20260902144521 83 227 8.0 15.0 0.00 0.00 0.00 91 1016.6
20260902141515 82 202 5.0 11.0 0.00 0.00 0.00 94 1016.7
20260902140013 81 232 5.0 9.0 0.00 0.00 0.00 96 1016.6
20260902134512 80 219 0.0 2.0 0.00 0.00 0.00 96 1016.7
20260902133009 79 227 0.0 0.0 0.00 0.00 0.00 96 1016.3
20260902131510 79 205 0.0 0.0 0.00 0.00 0.00 95 1016.2
20260902130007 79 199 0.0 0.0 0.00 0.00 0.00 95 1016.1
20260902124508 79 199 0.0 0.0 0.00 0.00 0.00 95 1015.9
20260902123005 79 199 0.0 0.0 0.00 0.00 0.00 95 1015.6
20260902121505 78 199 0.0 0.0 0.00 0.00 0.00 96 1015.6
20260902120005 78 199 0.0 0.0 0.00 0.00 0.00 96 1015.6
20260902114502 78 199 0.0 0.0 0.00 0.00 0.00 96 1015.6
20260902113001 79 199 0.0 0.0 0.00 0.00 0.00 96 1015.6
20260902111607 79 198 0.0 2.0 0.00 0.00 0.00 96 1015.4
20260902111500 79 198 0.0 2.0 0.00 0.00 0.00 96 1015.4
20260902110101 79 198 0.0 2.0 0.00 0.00 0.00 96 1015.3
20260902104559 79 198 0.0 3.0 0.00 0.00 0.00 95 1015.3
20260902103107 79 198 0.0 4.0 0.00 0.00 0.00 95 1015.3